Location: Asheville, NC
(35.6000°N, 82.5500°W)
Time: 05:47:32
(UTC-04:00)

Vanguard 2 Rocket - Pass Details

Date: 08 December 2017
Orbit: 553 x 3328 km, 32.9° (Epoch: 20 April)

Event Time Altitude Azimuth Distance (km) Brightness Sun altitude
Exits shadow 02:15:08 26° 126° (SE) 4,081 10.1 -62.3°
Drops below altitude 10° 02:19:28 10° 121° (ESE) 4,911 10.8 -61.5°
Sets 02:22:38 0° 119° (ESE) 5,610 11.2 -60.9°
